| time (UTC) | temp F | wind direction | speed knots | gust knots | rain 1hr in | rain 24hr in | rain mn in | humidity % | barometer mb |
| 20260503000607 | 65 | 0 | 0.9 | 5.2 | 0.00 | 0.00 | 0.00 | 8 | 1025.9 |
| 20260502230607 | 65 | 0 | 0.0 | 8.7 | 0.00 | 0.00 | 0.00 | 9 | 1026.1 |
| 20260502230112 | 65 | 0 | 2.6 | 8.7 | 0.00 | 0.00 | 0.00 | 9 | 1026.2 |
| 20260502220607 | 64 | 0 | 0.9 | 4.3 | 0.00 | 0.00 | 0.00 | 10 | 1026.9 |
| 20260502220112 | 64 | 0 | 0.0 | 4.3 | 0.00 | 0.00 | 0.00 | 8 | 1026.9 |
| 20260502210606 | 64 | 0 | 0.0 | 6.1 | 0.00 | 0.00 | 0.00 | 10 | 1028.3 |
| 20260502210112 | 64 | 0 | 1.7 | 6.1 | 0.00 | 0.00 | 0.00 | 12 | 1028.3 |
| 20260502200112 | 63 | 0 | 1.7 | 6.1 | 0.00 | 0.00 | 0.00 | 12 | 1028.7 |
| 20260502190614 | 59 | 0 | 2.6 | 10.4 | 0.00 | 0.00 | 0.00 | 15 | 1029.2 |
| 20260502190111 | 61 | 0 | 1.7 | 10.4 | 0.00 | 0.00 | 0.00 | 13 | 1029.3 |
| 20260502180607 | 60 | 0 | 1.7 | 7.0 | 0.00 | 0.00 | 0.00 | 17 | 1030.4 |
| 20260502180111 | 60 | 0 | 0.9 | 5.2 | 0.00 | 0.00 | 0.00 | 17 | 1030.3 |
| 20260502170111 | 58 | 0 | 0.9 | 7.8 | 0.00 | 0.00 | 0.00 | 20 | 1030.5 |
| 20260502160607 | 55 | 0 | 3.5 | 8.7 | 0.00 | 0.00 | 0.00 | 26 | 1030.8 |
| 20260502160111 | 54 | 0 | 2.6 | 11.3 | 0.00 | 0.00 | 0.00 | 26 | 1030.8 |
| 20260502150607 | 50 | 0 | 2.6 | 8.7 | 0.00 | 0.00 | 0.00 | 32 | 1030.8 |
| 20260502150111 | 50 | 0 | 4.3 | 8.7 | 0.00 | 0.00 | 0.00 | 32 | 1030.8 |
| 20260502140112 | 45 | 0 | 2.6 | 8.7 | 0.00 | 0.00 | 0.00 | 43 | 1030.8 |
| 20260502120606 | 37 | 0 | 0.0 | 5.2 | 0.00 | 0.00 | 0.00 | 53 | 1029.9 |
| 20260502120112 | 37 | 0 | 0.9 | 5.2 | 0.00 | 0.00 | 0.00 | 52 | 1029.9 |
| 20260502110606 | 37 | 0 | 0.9 | 4.3 | 0.00 | 0.00 | 0.00 | 51 | 1030.4 |
| 20260502100607 | 37 | 0 | 0.9 | 4.3 | 0.00 | 0.00 | 0.00 | 48 | 1030.1 |
| 20260502100111 | 38 | 0 | 0.9 | 4.3 | 0.00 | 0.00 | 0.00 | 48 | 1030.1 |
| 20260502090607 | 35 | 0 | 0.0 | 1.7 | 0.00 | 0.00 | 0.00 | 38 | 1030.0 |
| 20260502090111 | 35 | 0 | 0.0 | 0.0 | 0.00 | 0.00 | 0.00 | 38 | 1029.8 |
| 20260502070607 | 42 | 0 | 0.0 | 0.0 | 0.00 | 0.00 | 0.00 | 26 | 1029.5 |
| 20260502060606 | 43 | 0 | 0.9 | 1.7 | 0.00 | 0.00 | 0.00 | 23 | 1029.2 |
| 20260502060111 | 43 | 0 | 0.0 | 1.7 | 0.00 | 0.00 | 0.00 | 23 | 1029.2 |
| 20260502050606 | 46 | 0 | 1.7 | 5.2 | 0.00 | 0.00 | 0.00 | 15 | 1028.8 |
| 20260502040606 | 43 | 0 | 0.0 | 0.0 | 0.00 | 0.00 | 0.00 | 23 | 1028.1 |
| 20260502030606 | 49 | 0 | 0.0 | 0.0 | 0.00 | 0.00 | 0.00 | 18 | 1027.4 |
| 20260502030112 | 50 | 0 | 0.0 | 0.0 | 0.00 | 0.00 | 0.00 | 17 | 1027.3 |
| 20260502020111 | 52 | 0 | 2.6 | 8.7 | 0.00 | 0.00 | 0.00 | 11 | 1026.5 |
| 20260502010606 | 55 | 0 | 0.9 | 6.1 | 0.00 | 0.00 | 0.00 | 9 | 1025.8 |
| 20260502010111 | 55 | 0 | 2.6 | 6.1 | 0.00 | 0.00 | 0.00 | 9 | 1025.9 |